Location: Brantley
(31.5822°N, 86.2569°W)
Time: 07:12:20
(UTC+00:00)

Vanguard 3 - Pass Details

Date: 25 February 2026
Orbit: 507 x 3205 km, 33.4° (Epoch: 9 March)

Event Time Altitude Azimuth Distance (km) Brightness Sun altitude
Rises 16:31:15 0° 214° (SSW) 7,062 12.2 44.5°
Reaches altitude 10° 16:36:30 10° 207° (SSW) 6,113 12.1 45.1°
Maximum altitude 16:53:30 39° 147° (SSE) 3,828 13.0 46.7°
Drops below altitude 10° 17:06:34 10° 85° (E) 4,786 11.3 47.7°
Sets 17:10:01 0° 77° (ENE) 5,456 11.4 47.9°
